Location: Contre
(49.7477°N, 2.0963°E)
Time: 21:27:42
(UTC+00:00)

CZ-4C R/B - Visible Passes

Search period start: 22 September 2023 00:00
Search period end: 02 October 2023 00:00
Orbit: 453 x 603 km, 98.1° (Epoch: 22 September)

Date Brightness Start Highest point End Pass type
(mag) Time Alt. Az. Time Alt. Az. Time Alt. Az.
22 Sep 6.4 04:47:54 10° E 04:50:06 15° ENE 04:52:13 10° NNE visible
22 Sep 2.9 19:23:22 10° NNE 19:26:49 89° WNW 19:30:13 10° SSW visible
23 Sep 6.7 04:37:47 10° ENE 04:39:06 11° ENE 04:40:23 10° NE visible
23 Sep 2.8 19:12:15 10° NNE 19:15:40 65° ESE 19:19:02 10° S visible
23 Sep 6.4 20:48:14 10° NW 20:49:26 12° WNW 20:50:38 10° W visible
24 Sep 3.1 19:01:10 10° NNE 19:04:29 46° E 19:07:46 10° S visible
24 Sep 6.1 20:36:26 10° NNW 20:38:24 15° WNW 20:40:22 10° W visible
25 Sep 3.5 18:50:07 10° NNE 18:53:16 34° E 18:56:24 10° SSE visible
25 Sep 5.8 20:24:52 10° NNW 20:27:20 19° WNW 20:29:48 10° WSW visible
26 Sep 4.0 18:39:09 10° NE 18:42:02 25° E 18:44:55 10° SSE visible
26 Sep 5.3 20:13:25 10° N 20:16:15 24° WNW 20:19:03 10° WSW visible
27 Sep 4.3 18:28:15 10° NE 18:30:46 19° E 18:33:16 10° SE visible
27 Sep 4.8 20:02:03 10° N 20:05:07 32° WNW 20:08:11 10° SW visible
28 Sep 4.7 18:17:31 10° ENE 18:19:28 14° E 18:21:25 10° SE visible
28 Sep 4.1 19:50:42 10° N 19:53:57 43° WNW 19:57:13 10° SW visible
29 Sep 6.1 05:03:30 10° ESE 05:06:05 18° ENE 05:08:37 10° NNE visible
29 Sep 4.9 18:07:16 10° ENE 18:08:08 11° E 18:09:01 10° ESE visible
29 Sep 3.4 19:39:24 10° N 19:42:47 60° WNW 19:46:10 10° SSW visible
30 Sep 6.3 04:52:58 10° E 04:54:58 14° ENE 04:56:57 10° NNE visible
30 Sep 2.9 19:28:08 10° NNE 19:31:33 83° WNW 19:35:00 10° SSW visible
01 Oct 6.6 04:42:48 10° ENE 04:43:52 11° ENE 04:44:56 10° NE visible
01 Oct 2.8 19:16:53 10° NNE 19:20:19 70° ESE 19:23:46 10° S visible
01 Oct 6.4 20:53:06 10° NW 20:54:05 11° WNW 20:55:04 10° WNW visible
